Spokane, WA
on Tuesday, December 4, 2012

Tuesday
Previous Day Next Day
Daily Summary
 ActualAverageRecord
Temperature
Mean Temperature °F 29°F  
Max Temperature 49°F 34°F 55°F (1946)
Min Temperature 38°F 24°F 4°F (1983)
Degree Days
Heating Degree Days 21 36  
Month to date heating degree days 87 142  
Since 1 July heating degree days 1472 1809  
Cooling Degree Days 0 0  
Month to date cooling degree days 0 0  
Year to date cooling degree days 535 450  
Moisture
Dew Point 41°F   
Average Humidity 81    
Maximum Humidity 100    
Minimum Humidity 62    
Precipitation
Precipitation 0.36 in 0.08 in 0.50 in (1881)
Month to date precipitation 0.79 0.34  
Year to date precipitation 19.53 14.60  
Snow
Snow 0.00 in 0.40 in 6.50 in (1996)
Month to date snowfall 0.0 1.6  
Since 1 July snowfall 5.9 9.1  
Snow Depth 0.00 in   
Wind
Wind Speed 13 mph   
Max Wind Speed 23 mph   
Max Gust Speed 35 mph   
Visibility 8 miles   
Events Rain   

Key: T is trace of precipitation, MM is missing value
Source: NWS Daily Summary
Time(PST)TemperatureDew PointHumidity Pressure Visibility Wind DirectionWind SpeedGust SpeedPrecipitationEvents Conditions
12:53 AM 42.1°F 32.0°F 67% 29.87 in 10.0 miles SE 11.5 mph - N/A   Overcast
1:53 AM 41.0°F 32.0°F 70% 29.84 in 10.0 miles SE 6.9 mph - N/A   Overcast
2:53 AM 42.1°F 30.9°F 65% 29.82 in 10.0 miles ESE 12.7 mph 18.4 mph N/A   Overcast
3:53 AM 42.8°F 32.0°F 66% 29.79 in 10.0 miles SSE 5.8 mph - N/A Rain Light Rain
4:08 AM 42.8°F 33.8°F 70% 29.80 in 8.0 miles South 19.6 mph 31.1 mph 0.00 in Rain Light Rain
4:53 AM 39.0°F 36.0°F 89% 29.84 in 7.0 miles South 11.5 mph - 0.04 in Rain Light Rain
5:12 AM 39.2°F 37.4°F 93% 29.81 in 7.0 miles South 9.2 mph 21.9 mph 0.04 in Rain Light Rain
5:28 AM 39.2°F 35.6°F 87% 29.80 in 5.0 miles South 13.8 mph 21.9 mph 0.04 in Rain Light Rain
5:53 AM 37.9°F 37.0°F 97% 29.83 in 5.0 miles SSE 10.4 mph - 0.06 in Rain Light Rain
6:32 AM 37.4°F 37.4°F 100% 29.78 in 5.0 miles SE 11.5 mph 20.7 mph 0.01 in Rain Light Rain
6:53 AM 39.0°F 39.0°F 100% 29.81 in 5.0 miles SSE 13.8 mph 21.9 mph 0.02 in Rain Light Rain
7:53 AM 39.9°F 39.9°F 100% 29.82 in 10.0 miles SSE 15.0 mph 26.5 mph 0.00 in   Overcast
8:53 AM 42.1°F 42.1°F 100% 29.83 in 10.0 miles SSE 15.0 mph 23.0 mph N/A   Overcast
9:53 AM 42.8°F 42.8°F 100% 29.80 in 10.0 miles SSE 13.8 mph 19.6 mph N/A   Overcast
10:53 AM 44.1°F 43.0°F 96% 29.83 in 10.0 miles SSE 16.1 mph - N/A   Overcast
11:26 AM 44.6°F 42.8°F 93% 29.79 in 2.0 miles South 11.5 mph 20.7 mph 0.00 in   Light Drizzle
11:29 AM 44.6°F 42.8°F 93% 29.79 in 2.0 miles South 11.5 mph 20.7 mph 0.00 in   Light Drizzle
11:33 AM 44.6°F 42.8°F 93% 29.79 in 5.0 miles South 12.7 mph 18.4 mph 0.00 in Rain Light Rain
11:53 AM 45.0°F 43.0°F 93% 29.81 in 9.0 miles South 12.7 mph 20.7 mph 0.00 in Rain Light Rain
12:05 PM 44.6°F 42.8°F 93% 29.78 in 10.0 miles South 15.0 mph 21.9 mph 0.00 in   Overcast
12:53 PM 46.0°F 44.1°F 93% 29.78 in 10.0 miles South 15.0 mph - 0.00 in   Overcast
1:53 PM 48.0°F 45.0°F 89% 29.78 in 10.0 miles South 18.4 mph 27.6 mph N/A   Overcast
2:13 PM 48.2°F 44.6°F 87% 29.76 in 10.0 miles South 16.1 mph 25.3 mph N/A   Overcast
2:53 PM 48.0°F 45.0°F 89% 29.79 in 10.0 miles South 15.0 mph 23.0 mph N/A   Overcast
3:53 PM 46.9°F 44.1°F 90% 29.80 in 10.0 miles South 10.4 mph - 0.00 in Rain Light Rain
4:53 PM 46.9°F 44.1°F 90% 29.78 in 10.0 miles SSE 12.7 mph - 0.00 in   Mostly Cloudy
5:53 PM 46.0°F 44.1°F 93% 29.78 in 10.0 miles South 11.5 mph 17.3 mph 0.01 in   Mostly Cloudy
6:53 PM 46.0°F 44.1°F 93% 29.75 in 10.0 miles South 11.5 mph - 0.02 in   Overcast
7:53 PM 46.0°F 43.0°F 89% 29.73 in 10.0 miles SSE 12.7 mph 19.6 mph 0.01 in Rain Light Rain
8:45 PM 46.4°F 44.6°F 93% 29.72 in 5.0 miles SSW 12.7 mph - 0.03 in Rain Rain
8:53 PM 46.0°F 44.1°F 93% 29.74 in 5.0 miles SSW 11.5 mph - 0.06 in Rain Rain
9:06 PM 46.4°F 44.6°F 93% 29.71 in 7.0 miles South 11.5 mph - 0.02 in Rain Light Rain
9:53 PM 46.9°F 45.0°F 93% 29.71 in 7.0 miles SSW 15.0 mph - 0.04 in Rain Light Rain
10:53 PM 46.9°F 45.0°F 93% 29.71 in 7.0 miles SSW 13.8 mph - 0.07 in Rain Light Rain
11:53 PM 46.9°F 45.0°F 93% 29.71 in 7.0 miles SSW 13.8 mph 21.9 mph 0.03 in Rain Light Rain
Moon Phase
Dec. 04 Dec. 06 Dec. 13 Dec. 20 Dec. 28
Sunrise:07:21 AM (PST) Moon Rise:10:08 PM (PST)12/4
Sunset:03:59 PM (PST) Moon Set:11:02 AM (PST)12/4

Copyright © 2014 The Weather Underground, Inc.